Preview of NWS' New Version of Forecast
This preview is not operational and should not be used for support decisions.

Regional Weather Roundup (RWR)

Issued by National Weather Service (NWS)

                            
000
ASUS43 KBIS 222202
RWRND 

NORTH DAKOTA REGIONAL WEATHER ROUNDUP
NATIONAL WEATHER SERVICE BISMARCK ND
500 PM CDT MON JUL 22 2019

NOTE: "FAIR" INDICATES FEW OR NO CLOUDS BELOW 12,000 FEET WITH NO
SIGNIFICANT WEATHER AND/OR OBSTRUCTIONS TO VISIBILITY.


NDZ001>003-009>011-017-222300-
NORTHWEST NORTH DAKOTA
  
CITY           SKY/WX    TMP DP  RH WIND       PRES   REMARKS
WILLISTON      SUNNY     83  51  33 S8        30.25F                  
MINOT          CLOUDY    83  54  36 VRB5      30.25F                  
$$
 
NDZ018>021-031>035-040>046-222300-
SOUTHWEST NORTH DAKOTA
  
CITY           SKY/WX    TMP DP  RH WIND       PRES   REMARKS
BISMARCK       SUNNY     78  52  40 CALM      30.28F                  
DICKINSON      SUNNY     78  52  40 SE12      30.27F                  
GARRISON         N/A     78  52  40 E7        30.27F                  
HETTINGER ARPT MOSUNNY   77  53  43 SE12G17   30.29F                  
$$
 
NDZ004>008-012>016-024-026-027-054-222300-
NORTHEAST NORTH DAKOTA
  
CITY           SKY/WX    TMP DP  RH WIND       PRES   REMARKS
GRAND FORKS    MOSUNNY   77  55  46 NW7       30.22F                  
GRND FRKS AFB  MOSUNNY   78  56  45 N6        30.24F                  
DEVILS LAKE    MOSUNNY   78  53  41 W7        30.27F                  
$$
 
NDZ022-023-025-028>030-036>039-047>053-222300-
SOUTHEAST NORTH DAKOTA
  
CITY           SKY/WX    TMP DP  RH WIND       PRES   REMARKS
FARGO          SUNNY     78  50  37 VRB3      30.24F                  
JAMESTOWN      SUNNY     75  54  47 VRB5      30.28F                  
$$